Weather History for Watsonville, CA

Change the Weather History Date:

Monday, May 5, 2014

  Actual Average Record
Temperature  
Mean Temperature 59 °F 58 °F  
Max Temperature 68 °F 69 °F 82 °F (2011)
Min Temperature 50 °F 47 °F 43 °F (2007)
Degree Days  
Heating Degree Days 6    
Month to date heating degree days 18  
Since 1 July heating degree days 2217  
Cooling Degree Days 0    
Month to date cooling degree days 8  
Year to date cooling degree days 14  
Growing Degree Days 8 (Base 50)    
Moisture  
Dew Point 48 °F    
Average Humidity 69    
Maximum Humidity 89    
Minimum Humidity 48    
Precipitation  
Precipitation 0.00 in - 0.26 in (1986)
Month to date precipitation 0.00  
Year to date precipitation 8.14  
Since 1 July precipitation 9.21  
Sea Level Pressure  
Sea Level Pressure 30.03 in    
Wind  
Wind Speed 7 mph (WSW)    
Max Wind Speed 21 mph    
Max Gust Speed 29 mph    
Visibility 10 miles    
Events      
T = Trace of Precipitation, MM = Missing Value Source: NWS Daily Summary

Daily Weather History Graph

Daily Weather History Graph

Search for Another Location

Airport:

Trip Planner

Search our weather history database for the weather conditions in past years. The results will help you decide how hot, cold, wet, or windy it might be!

Date:

Astronomy

May. 05, 2014 Rise Set
Actual Time 6:08 AM PDT 7:59 PM PDT
Civil Twilight 5:40 AM PDT 8:27 PM PDT
Nautical Twilight 5:06 AM PDT 9:02 PM PDT
Astronomical Twilight 4:29 AM PDT 9:38 PM PDT
Moon 11:32 AM PDT (5/5) 12:47 AM PDT (5/5)
Length of Visible Light 14h 47m
Length of Day
13h 51m
Waxing Crescent, 37% of the Moon is Illuminated
May 5
Waxing Crescent
May 6
First Quarter
May 14
Full
May 21
Last Quarter
May 28
New

Hourly Weather History & Observations

Time (PDT) Temp. Dew Point Humidity Pressure Visibility Wind Dir Wind Speed Gust Speed Precip Events Conditions
12:53 AM 54.0 °F 48.9 °F 83% 30.07 in 10.0 mi WNW 3.5 mph - N/A   Clear
1:53 AM 53.1 °F 48.9 °F 86% 30.06 in 10.0 mi Calm Calm - N/A   Scattered Clouds
2:02 AM 53.6 °F 48.2 °F 82% 30.06 in 10.0 mi Calm Calm - N/A   Mostly Cloudy
2:37 AM 51.8 °F 48.2 °F 88% 30.05 in 10.0 mi Calm Calm - N/A   Partly Cloudy
2:53 AM 52.0 °F 48.9 °F 89% 30.05 in 10.0 mi Calm Calm - N/A   Clear
3:53 AM 52.0 °F 48.0 °F 86% 30.05 in 10.0 mi NW 3.5 mph - N/A   Clear
4:53 AM 52.0 °F 48.0 °F 86% 30.04 in 10.0 mi Calm Calm - N/A   Clear
5:53 AM 52.0 °F 48.0 °F 86% 30.04 in 10.0 mi Calm Calm - N/A   Clear
6:53 AM 52.0 °F 48.0 °F 86% 30.05 in 10.0 mi Calm Calm - N/A   Clear
7:53 AM 55.0 °F 51.1 °F 86% 30.06 in 10.0 mi Calm Calm - N/A   Scattered Clouds
8:05 AM 55.4 °F 51.8 °F 88% 30.06 in 10.0 mi Calm Calm - N/A   Mostly Cloudy
8:37 AM 57.2 °F 51.8 °F 82% 30.06 in 10.0 mi Calm Calm - N/A   Scattered Clouds
8:51 AM 57.2 °F 51.8 °F 82% 30.06 in 10.0 mi Calm Calm - N/A   Mostly Cloudy
8:53 AM 57.9 °F 51.1 °F 78% 30.06 in 10.0 mi Variable 3.5 mph - N/A   Scattered Clouds
9:53 AM 62.1 °F 48.9 °F 62% 30.06 in 10.0 mi Calm Calm - N/A   Partly Cloudy
11:53 AM 64.9 °F 50.0 °F 58% 30.05 in 10.0 mi SSW 9.2 mph - N/A   Mostly Cloudy
12:53 PM 66.0 °F 51.1 °F 59% 30.04 in 10.0 mi SW 11.5 mph 19.6 mph N/A   Clear
1:53 PM 66.9 °F 50.0 °F 54% 30.02 in 10.0 mi WSW 12.7 mph 24.2 mph N/A   Scattered Clouds
2:53 PM 63.0 °F 50.0 °F 63% 30.00 in 10.0 mi SW 17.3 mph 21.9 mph N/A   Overcast
3:53 PM 66.9 °F 50.0 °F 54% 29.97 in 10.0 mi SW 17.3 mph 26.5 mph N/A   Mostly Cloudy
4:53 PM 64.9 °F 50.0 °F 58% 29.96 in 10.0 mi SW 13.8 mph 20.7 mph N/A   Mostly Cloudy
5:53 PM 64.0 °F 48.9 °F 58% 29.96 in 10.0 mi WSW 13.8 mph 23.0 mph N/A   Clear
6:53 PM 63.0 °F 43.0 °F 48% 29.96 in 10.0 mi West 9.2 mph 20.7 mph N/A   Partly Cloudy
8:53 PM 55.9 °F 42.1 °F 60% 30.00 in 10.0 mi West 8.1 mph 17.3 mph N/A   Clear
9:53 PM 54.0 °F 42.1 °F 64% 30.01 in 10.0 mi West 8.1 mph - N/A   Clear
10:53 PM 54.0 °F 41.0 °F 62% 30.00 in 10.0 mi West 9.2 mph - N/A   Clear
11:53 PM 52.0 °F 42.1 °F 69% 29.98 in 10.0 mi WSW 5.8 mph - N/A   Clear